Terminal Aerodrome Forecast
Issued by NWS Norman, OK

Home | Current Version | Previous Version | Text Only | Print | Product List | Glossary On
Versions: 1 2 3 4 5 6 7 8 9 10 11 12 13
000
FTUS44 KOUN 272330
TAFSPS
TAF
KSPS 272330Z 2800/2824 VRB15G25KT P6SM VCTS SCT060CB SCT250
     FM280100 14006KT P6SM SCT070 BKN250=

USA.gov is the U.S. government's official web portal to all federal, state and local government web resources and services.